Flag for U.S.A. Weather past 2 weeks in Springfield, Missouri, U.S.A.

Now
60 °F

Clear.


Feels Like: 60 °F
Forecast: 35 / 57 °F
Wind: 17 mph from West

Location: Springfield Regional Airport

Current Time: Jan 29, 2015 at 2:29:50 AM

Latest Report: Jan 29, 2015 at 1:52 AM


Visibility: 10 mi

Pressure: 29.88 "Hg

Humidity: 44%

Dew point: 38 °F

Location of SpringfieldLocation

Historic Weather in Springfield — Graph

°F

Springfield temperature yesterday

Maximum temperature yesterday: 67 °F (at 3:52 PM)
Minimum temperature yesterday: 39 °F (at 5:52 AM)
Average temperature yesterday: 52 °F

Past Weeks' High & Low Weather Summary

 TemperatureHumidityPressure
High67 °F (Jan 28, 3:52 PM)97% (Jan 21, 7:52 AM)30.46 "Hg (Jan 21, 7:52 AM)
Low19 °F (Jan 14, 12:52 AM)18% (Jan 18, 2:52 PM)29.66 "Hg (Jan 25, 4:52 AM)
Average41 °F61%30.09 "Hg
* Reported Jan 14 12:52 AM — Jan 29 12:52 AM, Springfield, Weather by CustomWeather, © 2014

Note: Actual official high and low records may vary slightly from our data, if they occured in-between our weather recording intervals... More about our weather records

Advertising

Springfield weather history for previous 24 hours

 ConditionsComfort  
Time TempWeatherWind HumidityBarometerVisibility
12:52 AM
Jan 29
61 °FClear.17 mph46%29.85 "Hg10 mi
11:52 PM
Jan 28
57 °FClear.14 mph55%29.84 "Hg10 mi
10:52 PM53 °FClear.10 mph61%29.86 "Hg10 mi
9:52 PM55 °FClear.15 mph57%29.85 "Hg10 mi
8:52 PM56 °FClear.14 mph53%29.86 "Hg10 mi
7:52 PM60 °FClear.20 mph47%29.87 "Hg10 mi
6:52 PM61 °FClear.17 mph42%29.85 "Hg10 mi
5:52 PM63 °FClear.14 mph40%29.86 "Hg10 mi
4:52 PM67 °FSunny.13 mph33%29.87 "Hg10 mi
3:52 PM67 °FSunny.16 mph35%29.86 "Hg10 mi
2:52 PM65 °FSunny.N/A36%29.88 "Hg10 mi
1:52 PM62 °FSunny.23 mph38%29.91 "HgN/A
12:52 PM60 °FSunny.20 mph41%29.96 "Hg10 mi
11:52 AM57 °FSunny.22 mph46%30.01 "Hg10 mi
10:52 AM51 °FSunny.17 mph54%30.07 "Hg10 mi
9:52 AM46 °FSunny.23 mph63%30.08 "Hg10 mi
8:52 AM42 °FSunny.18 mph73%30.09 "Hg10 mi
7:52 AM39 °FSunny.16 mph79%30.09 "Hg10 mi
6:52 AM39 °FClear.22 mph79%30.09 "Hg10 mi
5:52 AM39 °FClear.15 mph79%30.06 "Hg10 mi
4:52 AM40 °FClear.22 mph80%30.06 "Hg10 mi
3:52 AM42 °FClear.24 mph71%30.07 "Hg10 mi
2:52 AM44 °FClear.20 mph60%30.07 "Hg10 mi
Weather by CustomWeather, © 2014

See weather overviewHow to use our weather pages